Year,Month,Day,Hour,Minute,Value (Times are PST for temperature in C)
2014,02,06,00,00,-5.80
2014,02,06,00,01,-5.70
2014,02,06,00,02,-5.70
2014,02,06,00,03,-5.70
2014,02,06,00,04,-5.70
2014,02,06,00,05,-5.70
2014,02,06,00,06,-5.70
2014,02,06,00,07,-5.60
2014,02,06,00,08,-5.50
2014,02,06,00,09,-5.30
2014,02,06,00,10,-5.30
2014,02,06,00,11,-5.30
2014,02,06,00,12,-5.30
2014,02,06,00,13,-5.30
2014,02,06,00,14,-5.30
2014,02,06,00,15,-5.30
2014,02,06,00,16,-5.30
2014,02,06,00,17,-5.30
2014,02,06,00,18,-5.30
2014,02,06,00,19,-5.30
2014,02,06,00,20,-5.30
2014,02,06,00,21,-5.30
2014,02,06,00,22,-5.30
2014,02,06,00,23,-5.30
2014,02,06,00,24,-5.30
2014,02,06,00,25,-5.30
2014,02,06,00,26,-5.30
2014,02,06,00,27,-5.20
2014,02,06,00,28,-5.20
2014,02,06,00,29,-5.20
2014,02,06,00,30,-5.30
2014,02,06,00,31,-5.30
2014,02,06,00,32,-5.30
2014,02,06,00,33,-5.30
2014,02,06,00,34,-5.40
2014,02,06,00,35,-5.40
2014,02,06,00,36,-5.50
2014,02,06,00,37,-5.50
2014,02,06,00,38,-5.60
2014,02,06,00,39,-5.60
2014,02,06,00,40,-5.60
2014,02,06,00,41,-5.60
2014,02,06,00,42,-5.50
2014,02,06,00,43,-5.40
2014,02,06,00,44,-5.30
2014,02,06,00,45,-5.30
2014,02,06,00,46,-5.30
2014,02,06,00,47,-5.30
2014,02,06,00,48,-5.30
2014,02,06,00,49,-5.30
2014,02,06,00,50,-5.30
2014,02,06,00,51,-5.30
2014,02,06,00,52,-5.30
2014,02,06,00,53,-5.30
2014,02,06,00,54,-5.30
2014,02,06,00,55,-5.30
2014,02,06,00,56,-5.20
2014,02,06,00,57,-5.20
2014,02,06,00,58,-5.10
2014,02,06,00,59,-5.10
2014,02,06,01,00,-5.10
2014,02,06,01,01,-5.10
2014,02,06,01,02,-5.00
2014,02,06,01,03,-5.00
2014,02,06,01,04,-5.00
2014,02,06,01,05,-4.90
2014,02,06,01,06,-4.90
2014,02,06,01,07,-5.00
2014,02,06,01,08,-5.00
2014,02,06,01,09,-5.00
2014,02,06,01,10,-5.00
2014,02,06,01,11,-5.00
2014,02,06,01,12,-5.00
2014,02,06,01,13,-5.10
2014,02,06,01,14,-5.10
2014,02,06,01,15,-5.10
2014,02,06,01,16,-5.20
2014,02,06,01,17,-5.20
2014,02,06,01,18,-5.20
2014,02,06,01,19,-5.20
2014,02,06,01,20,-5.30
2014,02,06,01,21,-5.30
2014,02,06,01,22,-5.30
2014,02,06,01,23,-5.30
2014,02,06,01,24,-5.30
2014,02,06,01,25,-5.30
2014,02,06,01,26,-5.40
2014,02,06,01,27,-5.40
2014,02,06,01,28,-5.40
2014,02,06,01,29,-5.50
2014,02,06,01,30,-5.50
2014,02,06,01,31,-5.60
2014,02,06,01,32,-5.60
2014,02,06,01,33,-5.70
2014,02,06,01,34,-5.70
2014,02,06,01,35,-5.70
2014,02,06,01,36,-5.70
2014,02,06,01,37,-5.80
2014,02,06,01,38,-5.80
2014,02,06,01,39,-5.80
2014,02,06,01,40,-5.80
2014,02,06,01,41,-5.80
2014,02,06,01,42,-5.80
2014,02,06,01,43,-5.90
2014,02,06,01,44,-5.90
2014,02,06,01,45,-5.90
2014,02,06,01,46,-5.90
2014,02,06,01,47,-5.90
2014,02,06,01,48,-5.90
2014,02,06,01,49,-5.80
2014,02,06,01,50,-5.70
2014,02,06,01,51,-5.70
2014,02,06,01,52,-5.40
2014,02,06,01,53,-5.30
2014,02,06,01,54,-5.30
2014,02,06,01,55,-5.30
2014,02,06,01,56,-5.30
2014,02,06,01,57,-5.30
2014,02,06,01,58,-5.30
2014,02,06,01,59,-5.30
2014,02,06,02,00,-5.30
2014,02,06,02,01,-5.30
2014,02,06,02,02,-5.30
2014,02,06,02,03,-5.30
2014,02,06,02,04,-5.30
2014,02,06,02,05,-5.30
2014,02,06,02,06,-5.30
2014,02,06,02,07,-5.30
2014,02,06,02,08,-5.30
2014,02,06,02,09,-5.40
2014,02,06,02,10,-5.40
2014,02,06,02,11,-5.40
2014,02,06,02,12,-5.50
2014,02,06,02,13,-5.50
2014,02,06,02,14,-5.50
2014,02,06,02,15,-5.60
2014,02,06,02,16,-5.60
2014,02,06,02,17,-5.60
2014,02,06,02,18,-5.60
2014,02,06,02,19,-5.60
2014,02,06,02,20,-5.50
2014,02,06,02,21,-5.40
2014,02,06,02,22,-5.40
2014,02,06,02,23,-5.30
2014,02,06,02,24,-5.30
2014,02,06,02,25,-5.30
2014,02,06,02,26,-5.30
2014,02,06,02,27,-5.30
2014,02,06,02,28,-5.40
2014,02,06,02,29,-5.40
2014,02,06,02,30,-5.40
2014,02,06,02,31,-5.40
2014,02,06,02,32,-5.50
2014,02,06,02,33,-5.50
2014,02,06,02,34,-5.60
2014,02,06,02,35,-5.60
2014,02,06,02,36,-5.60
2014,02,06,02,37,-5.70
2014,02,06,02,38,-5.70
2014,02,06,02,39,-5.70
2014,02,06,02,40,-5.70
2014,02,06,02,41,-5.80
2014,02,06,02,42,-5.80
2014,02,06,02,43,-5.80
2014,02,06,02,44,-5.80
2014,02,06,02,45,-5.80
2014,02,06,02,46,-5.90
2014,02,06,02,47,-5.90
2014,02,06,02,48,-5.90
2014,02,06,02,49,-6.10
2014,02,06,02,50,-6.10
2014,02,06,02,51,-6.10
2014,02,06,02,52,-6.10
2014,02,06,02,53,-6.10
2014,02,06,02,54,-6.10
2014,02,06,02,55,-6.10
2014,02,06,02,56,-6.10
2014,02,06,02,57,-6.10
2014,02,06,02,58,-6.10
2014,02,06,02,59,-6.10
2014,02,06,03,00,-5.90
2014,02,06,03,01,-5.90
2014,02,06,03,02,-5.90
2014,02,06,03,03,-5.90
2014,02,06,03,04,-5.90
2014,02,06,03,05,-5.90
2014,02,06,03,06,-5.90
2014,02,06,03,07,-5.90
2014,02,06,03,08,-5.90
2014,02,06,03,09,-5.90
2014,02,06,03,10,-5.90
2014,02,06,03,11,-5.90
2014,02,06,03,12,-5.90
2014,02,06,03,13,-5.90
2014,02,06,03,14,-5.90
2014,02,06,03,15,-5.90
2014,02,06,03,16,-5.90
2014,02,06,03,17,-5.90
2014,02,06,03,18,-5.90
2014,02,06,03,19,-5.90
2014,02,06,03,20,-5.90
2014,02,06,03,21,-5.90
2014,02,06,03,22,-5.90
2014,02,06,03,23,-5.90
2014,02,06,03,24,-6.10
2014,02,06,03,25,-6.10
2014,02,06,03,26,-6.10
2014,02,06,03,27,-6.10
2014,02,06,03,28,-6.10
2014,02,06,03,29,-6.10
2014,02,06,03,30,-6.10
2014,02,06,03,31,-6.10
2014,02,06,03,32,-6.10
2014,02,06,03,33,-6.20
2014,02,06,03,34,-6.20
2014,02,06,03,35,-6.10
2014,02,06,03,36,-6.10
2014,02,06,03,37,-6.10
2014,02,06,03,38,-6.10
2014,02,06,03,39,-6.10
2014,02,06,03,40,-6.10
2014,02,06,03,41,-6.10
2014,02,06,03,42,-6.10
2014,02,06,03,43,-5.90
2014,02,06,03,44,-5.90
2014,02,06,03,45,-5.90
2014,02,06,03,46,-5.90
2014,02,06,03,47,-6.10
2014,02,06,03,48,-6.10
2014,02,06,03,49,-6.10
2014,02,06,03,50,-6.10
2014,02,06,03,51,-6.10
2014,02,06,03,52,-6.20
2014,02,06,03,53,-6.10
2014,02,06,03,54,-6.10
2014,02,06,03,55,-6.10
2014,02,06,03,56,-6.20
2014,02,06,03,57,-6.20
2014,02,06,03,58,-6.30
2014,02,06,03,59,-6.20
2014,02,06,04,00,-6.20
2014,02,06,04,01,-6.20
2014,02,06,04,02,-6.20
2014,02,06,04,03,-6.20
2014,02,06,04,04,-6.20
2014,02,06,04,05,-6.20
2014,02,06,04,06,-6.20
2014,02,06,04,07,-6.20
2014,02,06,04,08,-6.30
2014,02,06,04,09,-6.30
2014,02,06,04,10,-6.40
2014,02,06,04,11,-6.40
2014,02,06,04,12,-6.40
2014,02,06,04,13,-6.40
2014,02,06,04,14,-6.40
2014,02,06,04,15,-6.40
2014,02,06,04,16,-6.40
2014,02,06,04,17,-6.40
2014,02,06,04,18,-6.40
2014,02,06,04,19,-6.40
2014,02,06,04,20,-6.40
2014,02,06,04,21,-6.40
2014,02,06,04,22,-6.40
2014,02,06,04,23,-6.40
2014,02,06,04,24,-6.40
2014,02,06,04,25,-6.40
2014,02,06,04,26,-6.50
2014,02,06,04,27,-6.50
2014,02,06,04,28,-6.60
2014,02,06,04,29,-6.60
2014,02,06,04,30,-6.60
2014,02,06,04,31,-6.60
2014,02,06,04,32,-6.60
2014,02,06,04,33,-6.60
2014,02,06,04,34,-6.50
2014,02,06,04,35,-6.50
2014,02,06,04,36,-6.50
2014,02,06,04,37,-6.50
2014,02,06,04,38,-6.50
2014,02,06,04,39,-6.50
2014,02,06,04,40,-6.50
2014,02,06,04,41,-6.50
2014,02,06,04,42,-6.50
2014,02,06,04,43,-6.50
2014,02,06,04,44,-6.50
2014,02,06,04,45,-6.60
2014,02,06,04,46,-6.60
2014,02,06,04,47,-6.50
2014,02,06,04,48,-6.40
2014,02,06,04,49,-6.30
2014,02,06,04,50,-6.30
2014,02,06,04,51,-6.30
2014,02,06,04,52,-6.30
2014,02,06,04,53,-6.30
2014,02,06,04,54,-6.30
2014,02,06,04,55,-6.40
2014,02,06,04,56,-6.40
2014,02,06,04,57,-6.40
2014,02,06,04,58,-6.50
2014,02,06,04,59,-6.40
2014,02,06,05,00,-6.40
2014,02,06,05,01,-6.40
2014,02,06,05,02,-6.50
2014,02,06,05,03,-6.50
2014,02,06,05,04,-6.50
2014,02,06,05,05,-6.50
2014,02,06,05,06,-6.50
2014,02,06,05,07,-6.50
2014,02,06,05,08,-6.50
2014,02,06,05,09,-6.50
2014,02,06,05,10,-6.50
2014,02,06,05,11,-6.50
2014,02,06,05,12,-6.50
2014,02,06,05,13,-6.50
2014,02,06,05,14,-6.50
2014,02,06,05,15,-6.50
2014,02,06,05,16,-6.50
2014,02,06,05,17,-6.50
2014,02,06,05,18,-6.50
2014,02,06,05,19,-6.60
2014,02,06,05,20,-6.60
2014,02,06,05,21,-6.60
2014,02,06,05,22,-6.70
2014,02,06,05,23,-6.70
2014,02,06,05,24,-6.70
2014,02,06,05,25,-6.70
2014,02,06,05,26,-6.70
2014,02,06,05,27,-6.70
2014,02,06,05,28,-6.70
2014,02,06,05,29,-6.70
2014,02,06,05,30,-6.70
2014,02,06,05,31,-6.70
2014,02,06,05,32,-6.60
2014,02,06,05,33,-6.60
2014,02,06,05,34,-6.60
2014,02,06,05,35,-6.60
2014,02,06,05,36,-6.60
2014,02,06,05,37,-6.60
2014,02,06,05,38,-6.60
2014,02,06,05,39,-6.60
2014,02,06,05,40,-6.60
2014,02,06,05,41,-6.60
2014,02,06,05,42,-6.60
2014,02,06,05,43,-6.60
2014,02,06,05,44,-6.60
2014,02,06,05,45,-6.50
2014,02,06,05,46,-6.50
2014,02,06,05,47,-6.50
2014,02,06,05,48,-6.40
2014,02,06,05,49,-6.40
2014,02,06,05,50,-6.40
2014,02,06,05,51,-6.40
2014,02,06,05,52,-6.50
2014,02,06,05,53,-6.50
2014,02,06,05,54,-6.50
2014,02,06,05,55,-6.50
2014,02,06,05,56,-6.60
2014,02,06,05,57,-6.60
2014,02,06,05,58,-6.70
2014,02,06,05,59,-6.70
2014,02,06,06,00,-6.70
2014,02,06,06,01,-6.70
2014,02,06,06,02,-6.70
2014,02,06,06,03,-6.80
2014,02,06,06,04,-6.80
2014,02,06,06,05,-6.80
2014,02,06,06,06,-6.80
2014,02,06,06,07,-6.80
2014,02,06,06,08,-6.80
2014,02,06,06,09,-6.80
2014,02,06,06,10,-6.70
2014,02,06,06,11,-6.70
2014,02,06,06,12,-6.70
2014,02,06,06,13,-6.70
2014,02,06,06,14,-6.70
2014,02,06,06,15,-6.70
2014,02,06,06,16,-6.80
2014,02,06,06,17,-6.80
2014,02,06,06,18,-6.80
2014,02,06,06,19,-6.90
2014,02,06,06,20,-6.90
2014,02,06,06,21,-7.00
2014,02,06,06,22,-7.00
2014,02,06,06,23,-7.00
2014,02,06,06,24,-7.00
2014,02,06,06,25,-7.00
2014,02,06,06,26,-6.90
2014,02,06,06,27,-6.90
2014,02,06,06,28,-6.90
2014,02,06,06,29,-6.90
2014,02,06,06,30,-6.90
2014,02,06,06,31,-6.80
2014,02,06,06,32,-6.80
2014,02,06,06,33,-6.80
2014,02,06,06,34,-6.80
2014,02,06,06,35,-6.80
2014,02,06,06,36,-6.80
2014,02,06,06,37,-6.80
2014,02,06,06,38,-6.80
2014,02,06,06,39,-6.80
2014,02,06,06,40,-6.80
2014,02,06,06,41,-6.90
2014,02,06,06,42,-6.90
2014,02,06,06,43,-6.90
2014,02,06,06,44,-7.00
2014,02,06,06,45,-7.00
2014,02,06,06,46,-7.00
2014,02,06,06,47,-7.00
2014,02,06,06,48,-6.90
2014,02,06,06,49,-6.90
2014,02,06,06,50,-6.90
2014,02,06,06,51,-7.00
2014,02,06,06,52,-7.00
2014,02,06,06,53,-7.00
2014,02,06,06,54,-7.00
2014,02,06,06,55,-7.00
2014,02,06,06,56,-6.90
2014,02,06,06,57,-6.90
2014,02,06,06,58,-6.90
2014,02,06,06,59,-7.00
2014,02,06,07,00,-7.00
2014,02,06,07,01,-6.90
2014,02,06,07,02,-6.90
2014,02,06,07,03,-7.00
2014,02,06,07,04,-7.00
2014,02,06,07,05,-7.00
2014,02,06,07,06,-7.00
2014,02,06,07,07,-7.00
2014,02,06,07,08,-7.10
2014,02,06,07,09,-7.10
2014,02,06,07,10,-7.10
2014,02,06,07,11,-7.10
2014,02,06,07,12,-7.20
2014,02,06,07,13,-7.20
2014,02,06,07,14,-7.20
2014,02,06,07,15,-7.20
2014,02,06,07,16,-7.20
2014,02,06,07,17,-7.30
2014,02,06,07,18,-7.30
2014,02,06,07,19,-7.30
2014,02,06,07,20,-7.30
2014,02,06,07,21,-7.30
2014,02,06,07,22,-7.30
2014,02,06,07,23,-7.30
2014,02,06,07,24,-7.30
2014,02,06,07,25,-7.30
2014,02,06,07,26,-7.30
2014,02,06,07,27,-7.30
2014,02,06,07,28,-7.30
2014,02,06,07,29,-7.30
2014,02,06,07,30,-7.30
2014,02,06,07,31,-7.40
2014,02,06,07,32,-7.40
2014,02,06,07,33,-7.40
2014,02,06,07,34,-7.40
2014,02,06,07,35,-7.60
2014,02,06,07,36,-7.60
2014,02,06,07,37,-7.60
2014,02,06,07,38,-7.60
2014,02,06,07,39,-7.60
2014,02,06,07,40,-7.60
2014,02,06,07,41,-7.60
2014,02,06,07,42,-7.60
2014,02,06,07,43,-7.40
2014,02,06,07,44,-7.40
2014,02,06,07,45,-7.40
2014,02,06,07,46,-7.40
2014,02,06,07,47,-7.30
2014,02,06,07,48,-7.30
2014,02,06,07,49,-7.30
2014,02,06,07,50,-7.30
2014,02,06,07,51,-7.40
2014,02,06,07,52,-7.40
2014,02,06,07,53,-7.40
2014,02,06,07,54,-7.40
2014,02,06,07,55,-7.60
2014,02,06,07,56,-7.60
2014,02,06,07,57,-7.60
2014,02,06,07,58,-7.60
2014,02,06,07,59,-7.60
2014,02,06,08,00,-7.60
2014,02,06,08,01,-7.60
2014,02,06,08,02,-7.60
2014,02,06,08,03,-7.60
2014,02,06,08,04,-7.60
2014,02,06,08,05,-7.60
2014,02,06,08,06,-7.60
2014,02,06,08,07,-7.60
2014,02,06,08,08,-7.60
2014,02,06,08,09,-7.60
2014,02,06,08,10,-7.60
2014,02,06,08,11,-7.60
2014,02,06,08,12,-7.60
2014,02,06,08,13,-7.60
2014,02,06,08,14,-7.60
2014,02,06,08,15,-7.60
2014,02,06,08,16,-7.60
2014,02,06,08,17,-7.60
2014,02,06,08,18,-7.60
2014,02,06,08,19,-7.60
2014,02,06,08,20,-7.60
2014,02,06,08,21,-7.60
2014,02,06,08,22,-7.60
2014,02,06,08,23,-7.60
2014,02,06,08,24,-7.60
2014,02,06,08,25,-7.60
2014,02,06,08,26,-7.60
2014,02,06,08,27,-7.60
2014,02,06,08,28,-7.60
2014,02,06,08,29,-7.60
2014,02,06,08,30,-7.60
2014,02,06,08,31,-7.60
2014,02,06,08,32,-7.60
2014,02,06,08,33,-7.60
2014,02,06,08,34,-7.60
2014,02,06,08,35,-7.60
2014,02,06,08,36,-7.60
2014,02,06,08,37,-7.60
2014,02,06,08,38,-7.70
2014,02,06,08,39,-7.70
2014,02,06,08,40,-7.70
2014,02,06,08,41,-7.70
2014,02,06,08,42,-7.60
2014,02,06,08,43,-7.60
2014,02,06,08,44,-7.60
2014,02,06,08,45,-7.60
2014,02,06,08,46,-7.40
2014,02,06,08,47,-7.40
2014,02,06,08,48,-7.40
2014,02,06,08,49,-7.40
2014,02,06,08,50,-7.40
2014,02,06,08,51,-7.40
2014,02,06,08,52,-7.40
2014,02,06,08,53,-7.40
2014,02,06,08,54,-7.40
2014,02,06,08,55,-7.40
2014,02,06,08,56,-7.40
2014,02,06,08,57,-7.40
2014,02,06,08,58,-7.40
2014,02,06,08,59,-7.30
2014,02,06,09,00,-7.30
2014,02,06,09,01,-7.30
2014,02,06,09,02,-7.30
2014,02,06,09,03,-7.30
2014,02,06,09,04,-7.30
2014,02,06,09,05,-7.20
2014,02,06,09,06,-7.20
2014,02,06,09,07,-7.10
2014,02,06,09,08,-7.00
2014,02,06,09,09,-6.80
2014,02,06,09,10,-6.70
2014,02,06,09,11,-6.70
2014,02,06,09,12,-6.60
2014,02,06,09,13,-6.50
2014,02,06,09,14,-6.50
2014,02,06,09,15,-6.40
2014,02,06,09,16,-6.30
2014,02,06,09,17,-6.20
2014,02,06,09,18,-6.20
2014,02,06,09,19,-6.10
2014,02,06,09,20,-6.10
2014,02,06,09,21,-6.10
2014,02,06,09,22,-6.10
2014,02,06,09,23,-6.10
2014,02,06,09,24,-6.10
2014,02,06,09,25,-6.10
2014,02,06,09,26,-6.10
2014,02,06,09,27,-6.10
2014,02,06,09,28,-6.10
2014,02,06,09,29,-6.20
2014,02,06,09,30,-6.20
2014,02,06,09,31,-6.20
2014,02,06,09,32,-6.20
2014,02,06,09,33,-6.30
2014,02,06,09,34,-6.30
2014,02,06,09,35,-6.30
2014,02,06,09,36,-6.30
2014,02,06,09,37,-6.20
2014,02,06,09,38,-6.20
2014,02,06,09,39,-6.10
2014,02,06,09,40,-6.10
2014,02,06,09,41,-6.10
2014,02,06,09,42,-5.90
2014,02,06,09,43,-5.90
2014,02,06,09,44,-5.90
2014,02,06,09,45,-5.90
2014,02,06,09,46,-5.90
2014,02,06,09,47,-5.90
2014,02,06,09,48,-5.90
2014,02,06,09,49,-5.80
2014,02,06,09,50,-5.80
2014,02,06,09,51,-5.70
2014,02,06,09,52,-5.60
2014,02,06,09,53,-5.60
2014,02,06,09,54,-5.50
2014,02,06,09,55,-5.50
2014,02,06,09,56,-5.40
2014,02,06,09,57,-5.40
2014,02,06,09,58,-5.40
2014,02,06,09,59,-5.30
2014,02,06,10,00,-5.30
2014,02,06,10,01,-5.30
2014,02,06,10,02,-5.30
2014,02,06,10,03,-5.20
2014,02,06,10,04,-5.20
2014,02,06,10,05,-5.10
2014,02,06,10,06,-5.10
2014,02,06,10,07,-5.10
2014,02,06,10,08,-5.00
2014,02,06,10,09,-5.00
2014,02,06,10,10,-4.90
2014,02,06,10,11,-4.90
2014,02,06,10,12,-4.80
2014,02,06,10,13,-4.80
2014,02,06,10,14,-4.70
2014,02,06,10,15,-4.70
2014,02,06,10,16,-4.70
2014,02,06,10,17,-4.60
2014,02,06,10,18,-4.50
2014,02,06,10,19,-4.40
2014,02,06,10,20,-4.30
2014,02,06,10,21,-4.20
2014,02,06,10,22,-4.20
2014,02,06,10,23,-4.10
2014,02,06,10,24,-3.90
2014,02,06,10,25,-3.80
2014,02,06,10,26,-3.70
2014,02,06,10,27,-3.60
2014,02,06,10,28,-3.50
2014,02,06,10,29,-3.40
2014,02,06,10,30,-3.30
2014,02,06,10,31,-3.30
2014,02,06,10,32,-3.20
2014,02,06,10,33,-3.10
2014,02,06,10,34,-3.10
2014,02,06,10,35,-3.00
2014,02,06,10,36,-2.90
2014,02,06,10,37,-2.90
2014,02,06,10,38,-2.80
2014,02,06,10,39,-2.80
2014,02,06,10,40,-2.80
2014,02,06,10,41,-2.70
2014,02,06,10,42,-2.70
2014,02,06,10,43,-2.70
2014,02,06,10,44,-2.60
2014,02,06,10,45,-2.50
2014,02,06,10,46,-2.40
2014,02,06,10,47,-2.40
2014,02,06,10,48,-2.30
2014,02,06,10,49,-2.30
2014,02,06,10,50,-2.20
2014,02,06,10,51,-2.10
2014,02,06,10,52,-2.10
2014,02,06,10,53,-2.00
2014,02,06,10,54,-1.90
2014,02,06,10,55,-1.80
2014,02,06,10,56,-1.80
2014,02,06,10,57,-1.80
2014,02,06,10,58,-1.80
2014,02,06,10,59,-1.90
2014,02,06,11,00,-1.90
2014,02,06,11,01,-2.00
2014,02,06,11,02,-2.00
2014,02,06,11,03,-2.00
2014,02,06,11,04,-2.00
2014,02,06,11,05,-2.00
2014,02,06,11,06,-2.00
2014,02,06,11,07,-1.90
2014,02,06,11,08,-1.80
2014,02,06,11,09,-1.80
2014,02,06,11,10,-1.80
2014,02,06,11,11,-1.70
2014,02,06,11,12,-1.70
2014,02,06,11,13,-1.70
2014,02,06,11,14,-1.70
2014,02,06,11,15,-1.70
2014,02,06,11,16,-1.70
2014,02,06,11,17,-1.70
2014,02,06,11,18,-1.70
2014,02,06,11,19,-1.60
2014,02,06,11,20,-1.60
2014,02,06,11,21,-1.50
2014,02,06,11,22,-1.50
2014,02,06,11,23,-1.50
2014,02,06,11,24,-1.40
2014,02,06,11,25,-1.40
2014,02,06,11,26,-1.40
2014,02,06,11,27,-1.40
2014,02,06,11,28,-1.40
2014,02,06,11,29,-1.40
2014,02,06,11,30,-1.40
2014,02,06,11,31,-1.40
2014,02,06,11,32,-1.30
2014,02,06,11,33,-1.30
2014,02,06,11,34,-1.20
2014,02,06,11,35,-1.20
2014,02,06,11,36,-1.10
2014,02,06,11,37,-1.10
2014,02,06,11,38,-1.10
2014,02,06,11,39,-1.10
2014,02,06,11,40,-1.10
2014,02,06,11,41,-0.90
2014,02,06,11,42,-0.90
2014,02,06,11,43,-0.90
2014,02,06,11,44,-0.90
2014,02,06,11,45,-0.90
2014,02,06,11,46,-0.90
2014,02,06,11,47,-0.90
2014,02,06,11,48,-0.80
2014,02,06,11,49,-0.70
2014,02,06,11,50,-0.60
2014,02,06,11,51,-0.60
2014,02,06,11,52,-0.60
2014,02,06,11,53,-0.60
2014,02,06,11,54,-0.60
2014,02,06,11,55,-0.60
2014,02,06,11,56,-0.60
2014,02,06,11,57,-0.60
2014,02,06,11,58,-0.60
2014,02,06,11,59,-0.60
2014,02,06,12,00,-0.60
2014,02,06,12,01,-0.40
2014,02,06,12,02,-0.40
2014,02,06,12,03,-0.20
2014,02,06,12,04,-0.10
2014,02,06,12,05,-0.10
2014,02,06,12,06,0.10
2014,02,06,12,07,0.10
2014,02,06,12,08,0.10
2014,02,06,12,09,-0.10
2014,02,06,12,10,-0.10
2014,02,06,12,11,-0.10
2014,02,06,12,12,-0.10
2014,02,06,12,13,-0.20
2014,02,06,12,14,-0.30
2014,02,06,12,15,-0.30
2014,02,06,12,16,-0.40
2014,02,06,12,17,-0.40
2014,02,06,12,18,-0.40
2014,02,06,12,19,-0.40
2014,02,06,12,20,-0.40
2014,02,06,12,21,-0.40
2014,02,06,12,22,-0.40
2014,02,06,12,23,-0.40
2014,02,06,12,24,-0.30
2014,02,06,12,25,-0.30
2014,02,06,12,26,-0.10
2014,02,06,12,27,-0.10
2014,02,06,12,28,0.10
2014,02,06,12,29,0.10
2014,02,06,12,30,0.20
2014,02,06,12,31,0.30
2014,02,06,12,32,0.40
2014,02,06,12,33,0.40
2014,02,06,12,34,0.50
2014,02,06,12,35,0.60
2014,02,06,12,36,0.60
2014,02,06,12,37,0.50
2014,02,06,12,38,0.40
2014,02,06,12,39,0.40
2014,02,06,12,40,0.40
2014,02,06,12,41,0.40
2014,02,06,12,42,0.40
2014,02,06,12,43,0.40
2014,02,06,12,44,0.50
2014,02,06,12,45,0.60
2014,02,06,12,46,0.60
2014,02,06,12,47,0.60
2014,02,06,12,48,0.60
2014,02,06,12,49,0.70
2014,02,06,12,50,0.70
2014,02,06,12,51,0.70
2014,02,06,12,52,0.70
2014,02,06,12,53,0.70
2014,02,06,12,54,0.80
2014,02,06,12,55,0.80
2014,02,06,12,56,0.90
2014,02,06,12,57,1.00
2014,02,06,12,58,1.10
2014,02,06,12,59,1.10
2014,02,06,13,00,1.10
2014,02,06,13,01,1.10
2014,02,06,13,02,1.10
2014,02,06,13,03,1.20
2014,02,06,13,04,1.20
2014,02,06,13,05,1.30
2014,02,06,13,06,1.30
2014,02,06,13,07,1.30
2014,02,06,13,08,1.30
2014,02,06,13,09,1.40
2014,02,06,13,10,1.40
2014,02,06,13,11,1.40
2014,02,06,13,12,1.40
2014,02,06,13,13,1.30
2014,02,06,13,14,1.30
2014,02,06,13,15,1.10
2014,02,06,13,16,1.10
2014,02,06,13,17,1.00
2014,02,06,13,18,1.00
2014,02,06,13,19,1.00
2014,02,06,13,20,1.00
2014,02,06,13,21,1.00
2014,02,06,13,22,0.90
2014,02,06,13,23,0.90
2014,02,06,13,24,1.00
2014,02,06,13,25,1.00
2014,02,06,13,26,1.10
2014,02,06,13,27,1.20
2014,02,06,13,28,1.30
2014,02,06,13,29,1.30
2014,02,06,13,30,1.30
2014,02,06,13,31,1.30
2014,02,06,13,32,1.20
2014,02,06,13,33,0.90
2014,02,06,13,34,0.80
2014,02,06,13,35,0.80
2014,02,06,13,36,0.80
2014,02,06,13,37,0.80
2014,02,06,13,38,0.80
2014,02,06,13,39,0.90
2014,02,06,13,40,1.00
2014,02,06,13,41,1.10
2014,02,06,13,42,1.20
2014,02,06,13,43,1.30
2014,02,06,13,44,1.30
2014,02,06,13,45,1.30
2014,02,06,13,46,1.30
2014,02,06,13,47,1.30
2014,02,06,13,48,1.40
2014,02,06,13,49,1.40
2014,02,06,13,50,1.40
2014,02,06,13,51,1.40
2014,02,06,13,52,1.30
2014,02,06,13,53,1.30
2014,02,06,13,54,1.30
2014,02,06,13,55,1.30
2014,02,06,13,56,1.20
2014,02,06,13,57,1.10
2014,02,06,13,58,1.10
2014,02,06,13,59,1.00
2014,02,06,14,00,1.00
2014,02,06,14,01,1.10
2014,02,06,14,02,1.10
2014,02,06,14,03,1.20
2014,02,06,14,04,1.20
2014,02,06,14,05,1.20
2014,02,06,14,06,1.20
2014,02,06,14,07,1.10
2014,02,06,14,08,1.20
2014,02,06,14,09,1.20
2014,02,06,14,10,1.20
2014,02,06,14,11,1.20
2014,02,06,14,12,1.20
2014,02,06,14,13,1.20
2014,02,06,14,14,1.00
2014,02,06,14,15,1.00
2014,02,06,14,16,1.00
2014,02,06,14,17,1.10
2014,02,06,14,18,1.10
2014,02,06,14,19,1.20
2014,02,06,14,20,1.20
2014,02,06,14,21,1.20
2014,02,06,14,22,1.10
2014,02,06,14,23,1.10
2014,02,06,14,24,1.10
2014,02,06,14,25,1.10
2014,02,06,14,26,1.10
2014,02,06,14,27,1.20
2014,02,06,14,28,1.30
2014,02,06,14,29,1.30
2014,02,06,14,30,1.30
2014,02,06,14,31,1.20
2014,02,06,14,32,1.20
2014,02,06,14,33,1.00
2014,02,06,14,34,0.90
2014,02,06,14,35,0.90
2014,02,06,14,36,0.80
2014,02,06,14,37,0.90
2014,02,06,14,38,0.90
2014,02,06,14,39,1.00
2014,02,06,14,40,1.10
2014,02,06,14,41,1.10
2014,02,06,14,42,1.10
2014,02,06,14,43,1.10
2014,02,06,14,44,1.20
2014,02,06,14,45,1.20
2014,02,06,14,46,1.30
2014,02,06,14,47,1.30
2014,02,06,14,48,1.30
2014,02,06,14,49,1.40
2014,02,06,14,50,1.30
2014,02,06,14,51,1.30
2014,02,06,14,52,1.30
2014,02,06,14,53,1.30
2014,02,06,14,54,1.40
2014,02,06,14,55,1.40
2014,02,06,14,56,1.50
2014,02,06,14,57,1.50
2014,02,06,14,58,1.50
2014,02,06,14,59,1.40
2014,02,06,15,00,1.40
2014,02,06,15,01,1.30
2014,02,06,15,02,1.30
2014,02,06,15,03,1.30
2014,02,06,15,04,1.20
2014,02,06,15,05,1.20
2014,02,06,15,06,1.20
2014,02,06,15,07,1.10
2014,02,06,15,08,0.90
2014,02,06,15,09,0.90
2014,02,06,15,10,0.90
2014,02,06,15,11,0.90
2014,02,06,15,12,1.00
2014,02,06,15,13,1.00
2014,02,06,15,14,1.10
2014,02,06,15,15,1.20
2014,02,06,15,16,1.30
2014,02,06,15,17,1.30
2014,02,06,15,18,1.30
2014,02,06,15,19,1.30
2014,02,06,15,20,1.20
2014,02,06,15,21,1.00
2014,02,06,15,22,0.90
2014,02,06,15,23,0.90
2014,02,06,15,24,1.00
2014,02,06,15,25,1.00
2014,02,06,15,26,1.10
2014,02,06,15,27,1.00
2014,02,06,15,28,0.90
2014,02,06,15,29,0.90
2014,02,06,15,30,0.90
2014,02,06,15,31,0.90
2014,02,06,15,32,0.90
2014,02,06,15,33,0.90
2014,02,06,15,34,1.00
2014,02,06,15,35,1.00
2014,02,06,15,36,0.90
2014,02,06,15,37,0.80
2014,02,06,15,38,0.80
2014,02,06,15,39,0.80
2014,02,06,15,40,0.80
2014,02,06,15,41,0.90
2014,02,06,15,42,1.00
2014,02,06,15,43,1.10
2014,02,06,15,44,1.20
2014,02,06,15,45,1.30
2014,02,06,15,46,1.30
2014,02,06,15,47,1.30
2014,02,06,15,48,1.30
2014,02,06,15,49,1.30
2014,02,06,15,50,1.30
2014,02,06,15,51,1.30
2014,02,06,15,52,1.30
2014,02,06,15,53,1.30
2014,02,06,15,54,1.30
2014,02,06,15,55,1.30
2014,02,06,15,56,1.30
2014,02,06,15,57,1.30
2014,02,06,15,58,1.10
2014,02,06,15,59,1.00
2014,02,06,16,00,1.00
2014,02,06,16,01,1.00
2014,02,06,16,02,1.10
2014,02,06,16,03,1.20
2014,02,06,16,04,1.20
2014,02,06,16,05,1.20
2014,02,06,16,06,1.30
2014,02,06,16,07,1.30
2014,02,06,16,08,1.30
2014,02,06,16,09,1.20
2014,02,06,16,10,1.20
2014,02,06,16,11,1.10
2014,02,06,16,12,1.00
2014,02,06,16,13,0.90
2014,02,06,16,14,0.90
2014,02,06,16,15,0.80
2014,02,06,16,16,0.80
2014,02,06,16,17,0.60
2014,02,06,16,18,0.60
2014,02,06,16,19,0.50
2014,02,06,16,20,0.50
2014,02,06,16,21,0.50
2014,02,06,16,22,0.50
2014,02,06,16,23,0.40
2014,02,06,16,24,0.40
2014,02,06,16,25,0.40
2014,02,06,16,26,0.40
2014,02,06,16,27,0.40
2014,02,06,16,28,0.30
2014,02,06,16,29,0.30
2014,02,06,16,30,0.20
2014,02,06,16,31,0.20
2014,02,06,16,32,0.20
2014,02,06,16,33,0.10
2014,02,06,16,34,0.10
2014,02,06,16,35,0.10
2014,02,06,16,36,-0.10
2014,02,06,16,37,-0.10
2014,02,06,16,38,-0.10
2014,02,06,16,39,-0.10
2014,02,06,16,40,-0.10
2014,02,06,16,41,-0.20
2014,02,06,16,42,-0.20
2014,02,06,16,43,-0.30
2014,02,06,16,44,-0.30
2014,02,06,16,45,-0.40
2014,02,06,16,46,-0.40
2014,02,06,16,47,-0.40
2014,02,06,16,48,-0.40
2014,02,06,16,49,-0.40
2014,02,06,16,50,-0.60
2014,02,06,16,51,-0.60
2014,02,06,16,52,-0.60
2014,02,06,16,53,-0.60
2014,02,06,16,54,-0.70
2014,02,06,16,55,-0.70
2014,02,06,16,56,-0.80
2014,02,06,16,57,-0.90
2014,02,06,16,58,-0.90
2014,02,06,16,59,-0.90
2014,02,06,17,00,-0.90
2014,02,06,17,01,-1.10
2014,02,06,17,02,-1.10
2014,02,06,17,03,-1.10
2014,02,06,17,04,-1.10
2014,02,06,17,05,-1.10
2014,02,06,17,06,-1.10
2014,02,06,17,07,-1.20
2014,02,06,17,08,-1.20
2014,02,06,17,09,-1.20
2014,02,06,17,10,-1.20
2014,02,06,17,11,-1.30
2014,02,06,17,12,-1.30
2014,02,06,17,13,-1.30
2014,02,06,17,14,-1.30
2014,02,06,17,15,-1.30
2014,02,06,17,16,-1.30
2014,02,06,17,17,-1.30
2014,02,06,17,18,-1.30
2014,02,06,17,19,-1.30
2014,02,06,17,20,-1.30
2014,02,06,17,21,-1.30
2014,02,06,17,22,-1.30
2014,02,06,17,23,-1.30
2014,02,06,17,24,-1.40
2014,02,06,17,25,-1.40
2014,02,06,17,26,-1.40
2014,02,06,17,27,-1.40
2014,02,06,17,28,-1.50
2014,02,06,17,29,-1.60
2014,02,06,17,30,-1.60